This is the latest recevied weather packets stored in our database for station/object KC0UFP. If no packets are shown the sender has not sent any weather packets the latest 10 day(s).
| Time | Temp. | Humidity | Pressure | Rain* | Wind** | Luminosity | Snow |
|---|---|---|---|---|---|---|---|
| 1777735147 | 16.67° C | 51% | 1018.1 hPa | 0 mm | - | 771 W/m² | - |
| 1777734843 | 16.67° C | 54% | 1018 hPa | 0 mm | - | 757 W/m² | - |
| 1777734541 | 16.11° C | 54% | 1018.2 hPa | 0 mm | - | 738 W/m² | - |
| 1777734237 | 16.11° C | 55% | 1018.3 hPa | 0 mm | - | 724 W/m² | - |
| 1777733934 | 15.56° C | 55% | 1018.3 hPa | 0 mm | - | 705 W/m² | - |
| 1777733630 | 15.56° C | 54% | 1018.3 hPa | 0 mm | - | 704 W/m² | - |
| 1777733327 | 15.56° C | 56% | 1018.2 hPa | 0 mm | - | 736 W/m² | - |
| 1777733024 | 15.56° C | 55% | 1018.5 hPa | 0 mm | - | 306 W/m² | - |
| 1777732720 | 15.56° C | 55% | 1018.3 hPa | 0 mm | - | 475 W/m² | - |
| 1777732417 | 15.56° C | 55% | 1018.1 hPa | 0 mm | - | 619 W/m² | - |
| 1777732115 | 15.56° C | 55% | 1018.5 hPa | 0 mm | - | 777 W/m² | - |
| 1777731812 | 15° C | 55% | 1018.3 hPa | 0 mm | - | 667 W/m² | - |
| 1777731508 | 15° C | 57% | 1018.2 hPa | 0 mm | - | 584 W/m² | - |
| 1777731207 | 14.44° C | 57% | 1018.2 hPa | 0 mm | - | 575 W/m² | - |
| 1777730904 | 14.44° C | 59% | 1018.1 hPa | 0 mm | - | 541 W/m² | - |
| 1777730601 | 15° C | 60% | 1018.5 hPa | 0 mm | - | 399 W/m² | - |
| 1777730297 | 14.44° C | 61% | 1018.5 hPa | 0 mm | - | 481 W/m² | - |
| 1777729994 | 14.44° C | 61% | 1018.2 hPa | 0 mm | - | 446 W/m² | - |
| 1777729690 | 14.44° C | 62% | 1018.5 hPa | 0 mm | - | 427 W/m² | - |
| 1777729388 | 14.44° C | 63% | 1018.6 hPa | 0 mm | - | 399 W/m² | - |
| 1777729083 | 13.89° C | 67% | 1018.1 hPa | 0 mm | - | 378 W/m² | - |
| 1777728781 | 13.89° C | 68% | 1018.3 hPa | 0 mm | - | 355 W/m² | - |
| 1777728477 | 13.89° C | 70% | 1018.1 hPa | 0 mm | - | 261 W/m² | - |
| 1777728175 | 13.89° C | 69% | 1018 hPa | 0 mm | - | 394 W/m² | - |
| 1777727871 | 13.89° C | 70% | 1017.9 hPa | 0 mm | - | 335 W/m² | - |
* Rain latest hour (hover to see other rain measurements)
** Current wind speed in m/s (hover to see current wind gust speed)